Regional Weather Roundup
Issued by NWS

Home | Current Version | Previous Version | Text Only | Print | Product List | Glossary Off
Versions: 1 2 3 4 5 6 7 8 9 10 11 12 13 14 15 16 17 18 19 20 21 22 23 24 25 26 27 28 29 30 31 32 33 34 35 36 37 38 39 40 41 42 43 44 45 46 47 48 49 50

000
ASUS43 KMPX 260610
RWRMN
WEATHER ROUNDUP FOR MINNESOTA
NATIONAL WEATHER SERVICE TWIN CITIES/CHANHASSEN MN
100 AM CDT TUE JUL 26 2016


NOTE: "FAIR" INDICATES FEW OR NO CLOUDS BELOW 12,000 FEET WITH NO
SIGNIFICANT WEATHER AND/OR OBSTRUCTIONS TO VISIBILITY. N/A MEANS
CURRENT SKY AND/OR WEATHER CONDITIONS ARE NOT AVAILABLE.

MNZ060>063-068>070-260700-
   Twin Cities Metro

CITY           SKY/WX    TMP DP  RH WIND       PRES   REMARKS
TWIN CITIES    CLEAR     76  65  68 SW3       30.05R
6HR MIN TEMP:  76; 6HR MAX TEMP:  85;

ST PAUL        CLEAR     72  66  81 CALM      30.04S
CRYSTAL        CLEAR     72  63  73 S3        30.03R
BLAINE         CLEAR     72  66  83 CALM      30.04S
LAKEVILLE      CLEAR     68  66  94 CALM      30.06S
EDEN PRAIRIE   CLEAR     72  66  81 CALM      30.04S
6HR MIN TEMP:  72; 6HR MAX TEMP:  85;

LAKEVILLE      CLEAR     68  66  94 CALM      30.06S
SOUTH ST PAUL  CLEAR     73  64  73 CALM      30.04S
LAKE ELMO      FAIR      68  64  88 CALM      30.06R
$$
MNZ001>005-007-008-013>017-022>024-027-028-260700-
   Northwest Minnesota

CITY           SKY/WX    TMP DP  RH WIND       PRES   REMARKS
BEMIDJI        PTCLDY    72  66  83 S5        29.97S
HALLOCK        CLEAR     66  64  94 E7        29.94S
ROSEAU         CLOUDY    64  61  88 CALM      29.97R
WARROAD        CLOUDY    64  61  88 CALM      29.97S
THIEF RVR FALL PTCLDY    70  66  87 NE9       29.96S
CROOKSTON      CLEAR     73  66  78 E8        29.94S
FOSSTON        CLEAR     70  64  83 S9        29.95F
DETROIT LAKES  CLEAR     73  64  73 S5        29.99S
MOORHEAD       PTCLDY    73  66  78 S9        29.93S
PARK RAPIDS    CLEAR     71  65  81 S6        29.99S
MAHNOMEN       MOCLDY    73  65  77 S9        29.95S
$$
MNZ006-009>011-018-025>026-260700-
   North Central Minnesota

CITY           SKY/WX    TMP DP  RH WIND       PRES   REMARKS
BAUDETTE       CLOUDY    66  64  93 CALM      29.97R
FLAG ISLAND    CLEAR     72  63  73 CALM      29.95S
INTL FALLS     PTCLDY    60  58  92 CALM      29.97S
6HR MIN TEMP:  59; 6HR MAX TEMP:  80;

WASKISH        CLOUDY    68  66  94 CALM      29.97S
BIG FORK       MOCLDY    63  63 100 CALM      29.99S
LONGVILLE      CLOUDY    64  64 100 CALM      29.99F
GRAND RAPIDS   PTCLDY    67  63  87 S5        30.02S
CRANE LAKE     CLOUDY    57  57 100 S1        29.99S
ORR            PTCLDY    64  59  82 CALM      29.97S
COOK           PTCLDY    63  61  94 CALM      29.99F
WALKER         FAIR      72  65  79 S5        29.98S
$$
MNZ012-019>021-037-260700-
   Northeast Minnesota

CITY           SKY/WX    TMP DP  RH WIND       PRES   REMARKS
DULUTH         CLEAR     67  63  87 W7        30.01S
6HR MIN TEMP:  67; 6HR MAX TEMP:  81;

ELY            CLEAR     63  61  94 CALM      30.00R
HIBBING        CLEAR     59  59 100 CALM      30.00S
EVELETH        CLEAR     61  60  97 CALM      30.01S
DULUTH HARBOR  CLEAR     72  66  83 SW8       29.98S
TWO HARBORS    CLEAR     72  64  78 NW3       29.97S
SILVER BAY     CLEAR     70  63  78 NW3       29.97S
GRAND MARAIS     N/A     57  56  96 CALM      29.94S
G MARAIS ARPRT CLEAR     63  55  77 W3        30.01S
$$
MNZ029>031-032-039>041-046>048-054>057-064-260700-
   West Central Minnesota

CITY           SKY/WX    TMP DP  RH WIND       PRES   REMARKS
FERGUS FALLS   CLEAR     72  64  78 S9        29.98S
WHEATON        CLEAR     73  66  78 S12       29.98S
MORRIS         CLEAR     68  64  88 S6        29.99S
ALEXANDRIA     CLEAR     74  63  68 S10       30.03S
ELBOW LAKE     FAIR      70  64  81 S12       30.00R
WADENA         MOCLDY    70  64  83 S3        30.00R
GLENWOOD       CLEAR     68  64  88 S7        30.04R
APPLETON       CLEAR     75  63  64 S9        30.00F
BENSON         CLEAR     70  63  78 SW8       30.01F
ORTONVILLE     CLEAR     70  63  78 S6        29.99F
MADISON        CLEAR     70  64  83 S8        30.02S
WILLMAR        FAIR      72  64  78 CALM      30.05S
$$
MNZ033>034-036-042>043-049>051-058-059-260700-
   Central Minnesota

CITY           SKY/WX    TMP DP  RH WIND       PRES   REMARKS
ST CLOUD       CLEAR     69  67  93 S6        30.03S
6HR MIN TEMP:  69; 6HR MAX TEMP:  83;

SAUK CENTRE    FAIR      67  65  91 S6        30.04R
PAYNESVILLE    CLEAR     71  65  83 S6        30.04S
AITKIN         CLEAR     70  63  78 CALM      30.00S
PINE RIVER     CLEAR     66  64  94 CALM      30.03S
BRAINERD       CLEAR     71  66  84 S7        30.01S
STAPLES        PTCLDY    70  64  83 S6        30.01S
LONG PRAIRIE   CLOUDY    68  64  88 SE3       30.03S
LITTLE FALLS   MOCLDY    68  63  83 CALM      30.03R
LITCHFIELD     CLEAR     73  70  88 CALM      30.05S
BUFFALO        CLEAR     73  65  78 S3        30.05S
MAPLE LAKE     CLEAR     72  68  87 S5        30.05S
HUTCHINSON     CLEAR     70  68  92 CALM      30.06S
$$
MNZ037-044-045-052-053-260700-
   East Central Minnesota

CITY           SKY/WX    TMP DP  RH WIND       PRES   REMARKS
PRINCETON      CLEAR     70  66  88 CALM      30.03S
MORA           CLEAR     64  63  94 CALM      30.05R
CAMBRIDGE      CLEAR     72  63  73 S3        30.02S
RUSH CITY      CLEAR     68  64  88 CALM      30.03S
MOOSE LAKE     PTCLDY    63  61  94 CALM      30.00S
HINCKLEY       FAIR      64  64 100 CALM      30.03R
CLOQUET        CLEAR     70  61  73 SW5       30.01S
MCGREGOR       CLEAR     68  64  88 CALM      30.02S
$$
MNZ071>073-080-081-089-090-097-098-260700-
   Southwest Minnesota

CITY           SKY/WX    TMP DP  RH WIND       PRES   REMARKS
MONTEVIDEO     CLEAR     72  63  73 SW8       30.04F
GRANITE FALLS  PTCLDY    68  66  93 S7        30.05S
CANBY          PTCLDY    71  63  76 S5        30.04F
MARSHALL       CLOUDY    69  64  84 SW7       30.05S
REDWOOD FALLS  CLEAR     71  64  78 S8        30.05S
OLIVIA         CLEAR     70  63  78 S5        30.04S
PIPESTONE      CLEAR     66  63  88 S3        30.09F
WINDOM         CLEAR     72  64  78 S5        30.09S
WORTHINGTON    CLEAR     69  65  86 S7        30.10F
JACKSON        CLEAR     70  64  83 S5        30.10F
TRACY          CLEAR     73  66  78 SW9       30.07S
SLAYTON        CLEAR     66  63  90 CALM      30.10F
$$
MNZ065>067-074>077-082>085-091>093-260700-
   South Central Minnesota

CITY           SKY/WX    TMP DP  RH WIND       PRES   REMARKS
MANKATO        CLEAR     72  63  73 S7        30.07S
NEW ULM        CLEAR     70  66  88 S5        30.06S
ST JAMES       CLEAR     64  63  94 CALM      30.08S
FAIRMONT       CLEAR     68  63  83 S5        30.08S
GLENCOE        CLEAR     72  68  86 S5        30.05S
FARIBAULT      CLEAR     64  64 100 CALM      30.08R
OWATONNA       CLEAR     66  63  88 CALM      30.08S
WASECA         CLEAR     64  63  94 CALM      30.09S
ALBERT LEA     CLEAR     68  66  94 CALM      30.09S
$$
MNZ078>079-086>088-094>096-260700-
   Southeast Minnesota

CITY           SKY/WX    TMP DP  RH WIND       PRES   REMARKS
ROCHESTER      CLEAR     67  65  93 W6        30.09S
6HR MIN TEMP:  67; 6HR MAX TEMP:  80;

RED WING       CLEAR     66  64  94 CALM      30.04S
STANTON        CLEAR     66  63  88 S3        30.05S
DODGE CENTER   CLEAR     64  63  94 SW6       30.09S
WINONA         PTCLDY    70  68  94 CALM      30.06S
AUSTIN         CLEAR     66  64  94 CALM      30.09S
PRESTON        CLEAR     66  63  88 W3        30.09S
$$
ABBREVIATIONS USED IN REMARKS
   TC - TEMPERATURES IN CELSIUS
  WCI - WIND CHILL INDEX
   HX - HEAT INDEX
  VSB - VISIBILITY
$$




USA.gov is the U.S. government's official web portal to all federal, state and local government web resources and services.